TITAN 3C TRANSTAGE DEB, 26049

Orbit data source: Space-Track

TITAN 3C TRANSTAGE DEB, 26049 is space debris in HEO originally from a launch on Tue, 21 Dec 1965 UTC launched from the Air Force Eastern Test Range (AFETR). Debris objects in space refer to the collection of defunct objects orbiting the Earth. Examples of debris include non-operational satellites, rocket bodies, and fragments generated from explosions, collisions, or faulty payload assembly.

Loading next visibility...
TITAN 3C TRANSTAGE DEB details
Identifier
26049, 1965-108AH
Orbit
HEO
Last TLE update2 days ago
Origin
Flag of USUSAF SSD (US)
ManufacturerUnknown
MissionSpacecraft
Bus & MotorUnknown
MassUnknown
Launch date (UTC)
1965-12-21 (59 years ago)
Launch vehicleUnknown
Launch site
Air Force Eastern Test Range (AFETR)
Object type
Payload
Rocket body
Debris
Shape & HBRUnknown
Radar Cross SectionSmall (<0.1 m²)

Expand to show TLE details & history

TLE from 2 days ago
0 TITAN 3C TRANSTAGE DEB
1 26049U 65108AH  24347.04916405  .00010088  00000-0  15851-1 0  9998
2 26049  27.2031 135.8026 4808470 203.7475 123.5958  5.68032587 78251
Epoch: 2024-12-12T01:10Z
Definitive object data (Epoch: 2024-12-12T01:10:47.773Z)
Latitude-0.00006°
Longitude36.8511°
Altitude11,840.39 km
Speed3.704 km/s
True Right ascension09h 03m 08s
True Declination0° 00' 00"
Sunlit
Object was in daylight at TLE epoch
Visualization TLE readout
Latitude23.37953°
Longitude91.85249°
Altitude10,731.447 km
Speed4.07 km/s
Apparent Right ascension11h 39m 02s
Apparent Declination8° 50' 32"
Sunlit
Object is in daylight
Visualization observer readout
Local Sidereal Time19:29:52
Azimuth295.258° NW
Elevation-14.701°
Doppler factor1
Orbital elements
Apogee altitude13,275.403 km
Perigee altitude511.97 km
Semi-major axis13,271.824 km
Eccentricity0.480847
Inclination27.2031°
RAAN135.8026°
Arg. of periapsis203.7475°
True anomaly156.28568°
Mean anomaly123.5958°
Eccentric anomaly140.95187°
Mean motion1.41954 °/min
BSTAR0.015851
Orbital period253.6 mins
Loading maneuver chart data...

TITAN 3C TRANSTAGE DEB Visibility forecast

Observer location: undefined°, undefined

Span
Click to sort rows by Start time (UTC) header in descending order
Start Az.
Max El. time (UTC)
Max El. Az.
Max El.
End time (UTC)
End Az.
126 mins2024-12-14 07:31:12.889Z155.02° SSE2024-12-14 08:34:12.889Z114.161° SE20.544°2024-12-14 09:37:12.889Z84.792° E
159 mins2024-12-14 11:57:12.889Z224.384° SW2024-12-14 13:53:12.889Z162.747° S41.906°2024-12-14 14:36:12.889Z94.7° ESE
76 mins2024-12-14 17:48:12.889Z272.023° WNW2024-12-14 18:52:12.889Z211.536° SW36.615°2024-12-14 19:04:12.889Z143.925° SSE
|